User: anonymous   Login
Location: Smithers
(54.7670°N, 127.1670°W)
Time: 14:11:05
(UTC-07:00)
Language:

ERBS - Orbit

View from above orbital plane
View from above orbital plane
View from above satellite
View from above satellite

Ground track
Ground track

The orbit data is extracted from the following two-line orbital elements,

1 15354U 84108B   16208.92448210 +.00002391 +00000-0 +66028-4 0  9997
2 15354 057.0094 096.2797 0010391 178.0219 182.0878 15.41178017747745
Epoch (UTC): 26 July 2016 22:11:15
Eccentricity: 0.0010391
inclination: 57.0094°
perigee height: 435 km
apogee height: 450 km
right ascension of ascending node: 96.2797°
argument of perigee: 178.0219°
revolutions per day: 15.41178017
mean anomaly at epoch: 182.0878°
orbit number at epoch: 74774

The dashed part of the orbit path shows where the satellite is in the earth's shadow,  

DLR